Location: Elkol
(41.7238°N, 110.6124°W)
Time: 11:34:15
(UTC+00:00)

ISS - Visible Passes

Search period start: 18 January 2022 00:00
Search period end: 28 January 2022 00:00
Orbit: 413 x 422 km, 51.6° (Epoch: 18 January)

Date Brightness Start Highest point End Pass type
(mag) Time Alt. Az. Time Alt. Az. Time Alt. Az.
18 Jan -3.0 01:44:27 10° SSW 01:47:30 34° SE 01:47:55 33° ESE visible
19 Jan -2.1 00:57:10 10° S 00:59:41 20° SE 01:02:13 10° E visible
19 Jan -2.1 02:32:58 10° WSW 02:35:11 34° W 02:35:11 34° W visible
20 Jan -3.8 01:44:55 10° WSW 01:48:15 82° NW 01:49:25 37° NE visible
21 Jan -3.5 00:57:02 10° SW 01:00:18 58° SE 01:03:34 10° ENE visible
21 Jan -1.7 02:34:25 10° W 02:36:30 23° NW 02:36:30 23° NW visible
22 Jan -2.5 01:46:04 10° W 01:49:09 34° NNW 01:50:36 23° NNE visible
23 Jan -3.2 00:57:50 10° WSW 01:01:05 51° NNW 01:04:21 10° NE visible
23 Jan -1.2 02:36:06 10° NW 02:37:34 16° NNW 02:37:34 16° NNW visible
24 Jan -1.8 01:47:37 10° WNW 01:50:12 20° NNW 01:51:33 16° NNE visible
25 Jan -2.1 00:59:09 10° W 01:02:01 26° NNW 01:04:53 10° NE visible
25 Jan -1.0 02:37:37 10° NW 02:38:26 13° NNW 02:38:26 13° NNW visible
26 Jan -1.6 01:49:13 10° NW 01:51:20 16° N 01:52:22 14° NNE visible
27 Jan -1.7 01:00:43 10° NW 01:03:03 17° NNW 01:05:24 10° NNE visible
27 Jan -1.0 02:38:34 10° NNW 02:39:13 13° NNW 02:39:13 13° NNW visible
